Regional Weather Roundup
Issued by NWS

Home | Current Version | Previous Version | Text Only | Print | Product List | Glossary On
Versions: 1 2 3 4 5 6 7 8 9 10 11 12 13 14 15 16 17 18 19 20 21 22 23 24 25 26 27 28 29 30 31 32 33 34 35 36 37 38 39 40 41 42 43 44 45 46 47 48 49 50
000
ASUS43 KIND 292209
RWRIN

WEATHER ROUNDUP FOR INDIANA
NATIONAL WEATHER SERVICE INDIANAPOLIS IN
600 PM EDT FRI AUG 29 2014

NOTE: "FAIR" INDICATES FEW OR NO CLOUDS BELOW 12,000 FEET WITH NO
SIGNIFICANT WEATHER AND/OR OBSTRUCTIONS TO VISIBILITY.

* - STATION DOES NOT REPORT WEATHER SUCH AS PRECIPITATION OR FOG.

+ - STATION NOT QUALITY CONTROLLED BY THE NATIONAL WEATHER SERVICE.
    USE DATA WITH CAUTION...ESPECIALLY DEWPOINT AND RELATIVE
    HUMIDITY OBSERVATIONS.

INZ001>003-010>013-019-020-292300-
NORTHWEST INDIANA

CITY           SKY/WX    TMP DP  RH WIND       PRES   REMARKS
GARY /AIRPORT/ PTSUNNY   82  73  74 SE9       29.92F
KNOX *+        MOSUNNY   78  70  74 SE6       29.94F
LA PORTE +     MOSUNNY   77  71  82 SE6       29.96S
MICHIGAN CITY+ MOSUNNY   77  68  73 CALM      29.94F
MONTICELLO +   PTSUNNY   82  73  75 SE6       29.93S
RENSSELAER +   CLOUDY    79  73  83 CALM      29.93F
VALPARAISO     PTSUNNY   78  72  81 SE8       29.95F

$$

LMZ046-743>745-292300-
SOUTHERN LAKE MICHIGAN

STATION/POSITION TIME  TEMP WIND        PRES
                       AIR  DIR/SP/G
                 (UTC) (F)  (DEG/KT/KT) (MB)
MICHIGAN CITY    2200   78  120/ 13/ 17   N/A

$$

INZ004-005-014>016-021>024-292300-
NORTH CENTRAL INDIANA

CITY           SKY/WX    TMP DP  RH WIND       PRES   REMARKS
ELKHART        CLOUDY    75  73  94 S7        29.99S FOG
GOSHEN         PTSUNNY   83  70  64 SE8       29.98F
LOGANSPORT +   PTSUNNY   79  68  69 SE7       29.96S
PERU/GRISSOM   MOSUNNY   80  75  83 SE7       29.97F
ROCHESTER +    MOSUNNY   84  72  65 SE8       29.97F
SOUTH BEND     PTSUNNY   77  72  84 SE12      29.97F
WARSAW +       MOSUNNY   81  70  69 SE6       29.99S

$$

INZ006>009-017-018-025>027-292300-
NORTHEAST INDIANA

CITY           SKY/WX    TMP DP  RH WIND       PRES   REMARKS
ANGOLA *+      SUNNY     81  68  65 S7        30.01F
AUBURN +       PTSUNNY   81  64  57 SE5       30.02F
FORT WAYNE     PTSUNNY   81  69  67 SE9       30.00F
HUNTINGTON +   MOSUNNY   82  70  67 SE5       29.99F

$$

INZ028-029-035-036-043>045-051>053-292300-
WEST CENTRAL INDIANA

CITY           SKY/WX    TMP DP  RH WIND       PRES   REMARKS
GREENCASTLE +  SUNNY     82  73  74 SE5       29.95S
LAFAYETTE      PTSUNNY   83  73  72 SE9       29.92F
TERRE HAUTE    PTSUNNY   79  69  71 SW3       29.93R

$$

INZ030>032-037>040-046>048-054>057-064-065-292300-
CENTRAL INDIANA

CITY           SKY/WX    TMP DP  RH WIND       PRES   REMARKS
CP ATTERBURY + SUNNY     86  70  58 SE8       29.96F
FRANKFORT +    CLOUDY    83  74  74 SE7       29.96F
INDIANAPOLIS   MOSUNNY   85  71  63 SE10      29.94F
-EAGLE CREEK   MOSUNNY   87  69  54 S10       29.94F
KOKOMO *+      PTSUNNY   79  70  73 SE7       29.97S
MARION +       SUNNY     83  68  60 SE8       29.99S
MT COMFORT *+  SUNNY     84  66  54 SE7       29.97F
SHELBYVILLE    MOSUNNY   87  72  60 SE12      29.96F
ZIONSVILLE +   MOSUNNY   84  71  64 SE3       29.96F

$$

INZ033-034-041-042-049-050-058-059-292300-
EAST CENTRAL INDIANA

CITY           SKY/WX    TMP DP  RH WIND       PRES   REMARKS
MUNCIE         MOSUNNY   83  68  60 SE9       29.99F

$$

INZ060-061-067>069-081>083-085>088-292300-
SOUTHWEST INDIANA

CITY           SKY/WX    TMP DP  RH WIND       PRES   REMARKS
EVANSVILLE     PTSUNNY   90  62  39 S8        29.93S
WASHINGTON +   PTSUNNY   87  73  62 SW5       29.92F

$$

INZ062-063-066-070>080-084-089>092-292300-
SOUTH CENTRAL AND SOUTHEAST INDIANA

CITY           SKY/WX    TMP DP  RH WIND       PRES   REMARKS
BEDFORD +      MOSUNNY   90  61  37 S7        29.95
BLOOMINGTON    SUNNY     87  70  56 S8        29.95F
NORTH VERNON + MOSUNNY   88  68  51 S6        29.98
SEYMOUR +      MOSUNNY   90  61  37 S8        29.96

$$




USA.gov is the U.S. government's official web portal to all federal, state and local government web resources and services.